KFSI

Details ICAO KFSI (FSI)
Name HENRY POST AAF
Region United States
Timezone America/Chicago (UTC-5.0)
Plans Departing 3
Arriving 3
Stats Elevation 1,188 ft / 362 m (AMSL)
Location 34.649821° -98.402175°
Runways 1
Magnetic Variation 4.212° E
Sunrise 2018-05-27 11:25:05 UTC / 2018-05-27 06:25:05 Local
Sunset 2018-05-28 01:39:23 UTC / 2018-05-27 20:39:23 Local
Advertisement - Login to hide

Runways

ID Width Length Bearing (true) Bearing (mag) Surface Threshold Offset Overrun Length
17 150 ft / 46 m 5,015 ft / 1,528 m 180.13° 175.92° Concrete 0 ft / 0 m 0 ft / 0 m
35 150 ft / 46 m 5,015 ft / 1,528 m 0.13° 355.92° Concrete 0 ft / 0 m 0 ft / 0 m

Map

Weather


0- 5 10 15 20 25 30 35+ Temperature / ° C

Clouds and Precipitation
Forecast for 2018-05-27 18:00 UTC. Updated 5 hours ago

Ground ~20,000 ft ~40,000 ft Winds

METAR

KFSI 272156Z AUTO 12014KT 10SM SCT055 34/24 A2980 RMK AO2 SLP081 T03370242

TAF

Not found

Frequencies

Recorded 135.42 MHz ATIS
Ground 121.70 MHz POST GND
Approach 118.60 MHz FORT SILL APP/DEP
Approach 127.30 MHz FORT SILL APP/DEP
Clearance 121.70 MHz CLNC DEL
Tower 124.95 MHz POST TWR
Approach 120.55 MHz FORT SILL APP/DEP
Warning: Do not use this data for real-world aviation or navigation. No guarantee of current accuracy is given.